Flag for U.S.A. Weather past 2 weeks in Vallejo, California, U.S.A.

Now
53 °F

Clear.


Feels Like: 49 °F
Forecast: 46 / 69 °F
Wind: 15 mph from Southwest

Location: Napa County Airport

Current Time: May 6, 2015 at 12:31:02 AM

Latest Report: May 5, 2015 at 11:54 PM


Visibility: 10 mi

Pressure: 29.85 "Hg

Humidity: 83%

Dew point: 48 °F

Location of VallejoLocation

Historic Weather in Vallejo — Graph

°F

Vallejo temperature yesterday

Maximum temperature yesterday: 66 °F (at 1:54 PM)
Minimum temperature yesterday: 46 °F (at 5:54 AM)
Average temperature yesterday: 56 °F

Past Weeks' High & Low Weather Summary

 TemperatureHumidityPressure
High87 °F (Apr 30, 2:54 PM)100% (Apr 27, 3:00 AM)30.12 "Hg (Apr 27, 3:00 AM)
Low41 °F (Apr 26, 5:54 AM)23% (Apr 30, 2:54 PM)29.74 "Hg (Apr 30, 6:54 PM)
Average57 °F76%29.89 "Hg
* Reported Apr 20 10:54 PM — May 5 10:54 PM, Vallejo, Weather by CustomWeather, © 2015

Note: Actual official high and low records may vary slightly from our data, if they occured in-between our weather recording intervals... More about our weather records

Advertising

Vallejo weather history for previous 24 hours

 ConditionsComfort  
Time TempWeatherWind HumidityBarometerVisibility
10:54 PM
Tue, May 5
53 °FClear.10 mph80%29.85 "Hg10 mi
9:54 PM55 °FClear.13 mph74%29.85 "Hg10 mi
8:54 PM56 °FSunny.13 mph72%29.84 "Hg10 mi
7:54 PM58 °FSunny.8 mph72%29.82 "Hg10 mi
6:54 PM61 °FSunny.15 mph65%29.82 "Hg10 mi
5:54 PM64 °FSunny.16 mph56%29.83 "Hg10 mi
4:54 PM65 °FSunny.17 mph51%29.83 "Hg10 mi
3:54 PM66 °FSunny.18 mph54%29.85 "Hg10 mi
2:54 PM66 °FSunny.15 mph56%29.86 "Hg10 mi
1:54 PM66 °FSunny.13 mph56%29.88 "Hg10 mi
12:54 PM64 °FSunny.10 mph58%29.90 "Hg10 mi
11:54 AM61 °FSunny.9 mph62%29.92 "Hg10 mi
10:54 AM59 °FSunny.8 mph67%29.93 "Hg10 mi
9:54 AM57 °FSunny.8 mph72%29.93 "Hg10 mi
8:54 AM53 °FSunny.8 mph83%29.92 "Hg10 mi
7:54 AM50 °FPassing clouds.5 mph89%29.92 "Hg9 mi
6:54 AM46 °FClear.No wind93%29.91 "Hg9 mi
5:54 AM46 °FPassing clouds.3 mph93%29.90 "Hg10 mi
4:54 AM47 °FPassing clouds.3 mph93%29.90 "Hg10 mi
3:54 AM49 °FOvercast.6 mph90%29.90 "Hg10 mi
2:54 AM51 °FOvercast.7 mph89%29.89 "Hg10 mi
1:54 AM51 °FOvercast.9 mph86%29.90 "Hg10 mi
12:54 AM52 °FOvercast.15 mph86%29.90 "Hg10 mi
Weather by CustomWeather, © 2015

See weather overviewHow to use our weather pages